PSYCHE

导读

PSYCHE(灵神星)是美国航空航天局于2023年10月13日,在佛罗里达州肯尼迪航天中心通过猎鹰重型运载火箭发射的小行星探测器。其任务目标是前往位于火星和木星之间的主带小行星灵神星展开探测,任务计划穿越太空35亿公里,预计2029年抵达灵神星,开展为期26个月的绕飞观测,帮助科学家揭秘行星内核的奥秘,探究太阳系行星的形成过程。

基本信息
目录编号:
58049
目录名称:
PSYCHE
国际标识:
2023-157A
轨道中心:
EARTH
卫星名称:
PSYCHE
卫星全名:
--
卫星状态:
在轨 (已飞行1005 天)
发射日期:
2023-10-13 UTC
国别 :
美国 (US)
星等 :
--
轨道信息
数据来源 国际轨道数据
星历时间: 2023-10-14T06:28:10+0800
轨道信息已过期1004天
半长轴: 6854.97km
偏心率: 0.04672
轨道倾角: 30.000°
近地点辐角 123.510°
升交点赤经 47.543°
平近点角 359.980°
近地点: 156.57km
远地点: 797.1km
周期: 94.139分钟
每日圈数: 15.296584
详细信息
使用方式:
暂无
2D轨道图
3D轨道图
轨道高度分析图
轨道倾角分析图
轨道综合分析图
查看轨道综合分析图